Tracking 29594 objects as of 20-Sep-2024
HD Live streaming from Space Station
objects crossing your sky now

COSMOS 87

Track COSMOS 87 now!
10-day predictions
COSMOS 87 is classified as:


NORAD ID: 1585
Int'l Code: 1965-073B
Perigee: 1,324.1 km
Apogee: 1,640.6 km
Inclination: 56.1 °
Period: 115.4 minutes
Semi major axis: 7853 km
RCS: 0.3642 m2 (medium)
Launch date: September 18, 1965
Source: Commonwealth of Independent States (former USSR) (CIS)
Launch site: TYURATAM MISSILE AND SPACE COMPLEX (TTMTR)
Your satellite tracking list
Your tracking list is empty




NASA's NSSDC Master Catalog

Two Line Element Set (TLE):
1 01585U 65073B   24264.18228258 -.00000082  00000-0  77710-4 0  9991
2 01585  56.0609 190.4258 0201495 254.8270 250.3600 12.47449691686514
Source of the keplerian elements: AFSPC